Location: Snead
(33.5657°N, 82.1207°W)
Time: 01:14:05
(UTC+00:00)

ISS - Visible Passes

Search period start: 18 July 2024 00:00
Search period end: 28 July 2024 00:00
Orbit: 409 x 424 km, 51.6° (Epoch: 17 July)

Date Brightness Start Highest point End Pass type
(mag) Time Alt. Az. Time Alt. Az. Time Alt. Az.
23 Jul -1.0 03:17:30 10° NNW 03:18:40 16° N 03:18:40 16° N visible
24 Jul -1.2 02:29:42 10° N 02:31:16 13° NNE 02:31:46 12° NE visible
25 Jul -1.1 03:16:30 10° NW 03:17:45 21° NNW 03:17:45 21° NNW visible
26 Jul -2.3 02:28:09 10° NNW 02:30:53 29° NNE 02:30:53 29° NNE visible
27 Jul -1.7 01:39:58 10° NNW 01:42:20 18° NNE 01:44:03 13° ENE visible
27 Jul -0.9 03:16:03 10° WNW 03:16:56 16° WNW 03:16:56 16° WNW visible
